Preview of NWS' New Version of Forecast
This preview is not operational and should not be used for support decisions.
Latest weather observations around

Chattanooga, Lovell Field (KCHA)

Using English Units (Switch to International System of Units)
Date/ Time (EDT) Wind (mph) Vis. (mi) Weather Sky Cond. Temp (°F) Rel. Humidity Wind Chill (°F) Heat Index (°F) Pressure Precip. (in)
Air Dwpt 6 hour Altimeter (inHg) Sea level (inHg) 1 hr 3 hr 6 hr
Max Min
Sep 16 09:53 Calm 10 Clear CLR 77 66     69%   78 30.15 30.13      
Sep 16 08:53 NNW 3 10 Clear CLR 72 64     76%   72 30.14 30.12      
Sep 16 07:53 Calm 10 Clear CLR 67 64     90%     30.14 30.11      
Sep 16 06:53 Calm 10 Clear CLR 66 64     93%     30.13 30.1      
Sep 16 05:53 Calm 10 Clear CLR 66 64     93%     30.11 30.08      
Sep 16 04:53 Calm 10 Clear CLR 68 65     90%     30.1 30.07      
Sep 16 03:53 SSW 3 10 Clear CLR 70 65     84%     30.09 30.06      
Sep 16 02:53 Calm 10 Clear CLR 71 65     81%   72 30.1 30.07      
Sep 16 01:53 Calm 10 Clear CLR 69 64     84%     30.11 30.08      
Sep 16 00:53 Calm 10 Clear CLR 73 64     73%   73 30.1 30.07      
Sep 15 23:53 Calm 10 Partly Cloudy SCT250 73 65     76%   74 30.1 30.07      
Sep 15 22:53 Calm 10 Partly Cloudy SCT250 77 64     64%   77 30.09 30.06      
Sep 15 21:53 Calm 10 Partly Cloudy FEW075 SCT250 79 63     58%   79 30.08 30.05      
Sep 15 20:53 NNW 3 10 Partly Cloudy FEW075 SCT250 80 62     54%   81 30.06 30.03      
Sep 15 19:53 ENE 3 10 Mostly Clear FEW075 FEW250 91 54     29%   89 30.05 30.02      
Sep 15 18:53 E 6 10 Mostly Clear FEW075 FEW250 94 56     28%   92 30.05 30.02      
Sep 15 17:53 NNE 9 10 Mostly Clear FEW075 FEW250 97 54     24%   95 30.05 30.02      
Sep 15 16:53 ENE 6 10 Mostly Clear FEW075 FEW250 96 58     28%   95 30.06 30.03      
Sep 15 15:53 N 3 10 Mostly Clear FEW065 FEW250 96 60     30%   96 30.08 30.05      
Sep 15 14:53 N 7 10 Partly Cloudy SCT065 SCT250 95 58     29%   94 30.11 30.09      
Sep 15 13:53 5 10 Mostly Clear FEW055 FEW250 92 66     43%   95 30.14 30.11      
Sep 15 12:53 NNE 10 10 Mostly Clear FEW042 FEW250 91 67     45%   94 30.17 30.14      
Sep 15 11:53 NNW 6 10 Partly Cloudy FEW037 SCT250 88 67     50%   91 30.19 30.16      
Sep 15 10:53 N 5 10 Partly Cloudy SCT250 84 68     59%   87 30.2 30.17      
Sep 15 09:53 NNW 3 10 Partly Cloudy SCT250 80 69     69%   83 30.2 30.17      
Sep 15 08:53 Calm 6 Fog/Mist FEW003 SCT250 75 72     90%   76 30.19 30.16      
Sep 15 07:53 Calm 4 Fog/Mist and Patchy Fog SCT003 SCT250 71 70     96%   72 30.18 30.16      
Sep 15 07:13 Calm 2.5 Fog/Mist and Patchy Fog SCT003 SCT250 71 70     96%   72 30.18        
Sep 15 06:53 Calm 4 Fog/Mist SCT003 SCT250 71 70     96%   72 30.18 30.16      
Sep 15 05:53 Calm 6 Fog/Mist FEW003 SCT250 71 70     96%   72 30.17 30.15      
Sep 15 04:53 Calm 9 Clear CLR 72 70     93%   73 30.17 30.14      
Sep 15 03:53 Calm 8 Clear CLR 72 70     93%   73 30.16 30.14      
Sep 15 02:53 Calm 9 Clear CLR 72 70     93%   73 30.17 30.15      
Sep 15 01:53 Calm 10 Clear CLR 74 71     91%   75 30.18 30.16      
Sep 15 00:53 E 3 10 Clear CLR 75 71     88%   76 30.18 30.15      
Sep 14 23:53 Calm 10 Partly Cloudy FEW150 FEW170 SCT250 75 71     88%   76 30.19 30.16      
Sep 14 22:53 Calm 10 Partly Cloudy FEW150 FEW170 SCT250 77 72     84%   78 30.19 30.17      
Sep 14 21:53 Calm 10 Mostly Cloudy FEW050 FEW150 SCT170 BKN250 77 71     82%   78 30.18 30.16      
Sep 14 20:53 Calm 10 Mostly Cloudy FEW050 FEW150 SCT170 BKN250 81 70     69%   84 30.18 30.15      
Sep 14 19:53 N 3 10 Mostly Cloudy FEW050 SCT110 BKN170 BKN250 83 70     65%   87 30.17 30.14     0
Sep 14 18:53 ENE 6 10 Mostly Cloudy FEW045 SCT110 BKN170 BKN250 86 70     59%   91 30.17 30.14      
Sep 14 17:53 Calm 10 Mostly Cloudy SCT045 SCT110 BKN180 BKN250 87 69     55%   91 30.17 30.14      
Sep 14 16:53 E 5 10 Mostly Cloudy SCT045 SCT110 BKN180 BKN250 85 72     65%   91 30.18 30.15   0  
Sep 14 15:53 ENE 5 10 Mostly Cloudy FEW035 SCT048 BKN090 BKN250 81 73     77%   86 30.19 30.17 0    
Sep 14 14:53 E 6 10 Light Drizzle SCT035 BKN048 BKN090 BKN250 79 74     85%   83 30.22 30.19 0    
Sep 14 13:53 Calm 10 Mostly Cloudy SCT041 SCT065 BKN100 BKN250 79 72     79%   82 30.25 30.23 0   0
Sep 14 13:17 NW 3 10 Light Drizzle SCT041 SCT065 BKN110 BKN250 78 72     82%   79 30.26   0    
Sep 14 12:53 Calm 10 Thunderstorms SCT041 BKN075 BKN110 BKN250 78 72     82%   79 30.27 30.24 0    
Sep 14 12:35 NNW 3 10 Thunderstorms SCT041 BKN075 BKN110 BKN250 77 72     84%   78 30.27   0    
Sep 14 11:53 NW 3 7 Cloudy SCT046 BKN075 OVC110 78 73     85%   80 30.27 30.24      
Sep 14 10:53 Calm 5 Patchy Fog and Fog/Mist SCT044 BKN080 OVC110 76 72     88%   77 30.28 30.25 0 0  
Sep 14 09:53 SW 3 4 Light Rain and Fog/Mist SCT048 BKN075 OVC110 75 72     90%   76 30.28 30.25 0    
Sep 14 08:53 S 3 7 Mostly Cloudy SCT060 SCT085 BKN110 76 71     85%   77 30.26 30.23      
Sep 14 07:53 ESE 6 7 Mostly Cloudy SCT085 BKN110 76 70     82%   77 30.24 30.21     0
Sep 14 06:53 Calm 10 Mostly Cloudy SCT070 BKN110 76 70     82%   77 30.23 30.2      
Sep 14 05:53 SSW 6 10 Partly Cloudy SCT070 SCT120 76 69     79%   77 30.21 30.18      
Sep 14 04:53 Calm 10 Mostly Cloudy BKN075 77 69     77%   78 30.21 30.18   0  
Sep 14 03:53 S 7 10 Clear CLR 78 69     74%   79 30.2 30.17      
Sep 14 02:53 SSE 6 10 Mostly Cloudy FEW046 SCT075 BKN090 77 69     77%   78 30.22 30.19 0    
Sep 14 01:53 SSE 10 10 Partly Cloudy SCT060 81 68     65%   84 30.22 30.19      
Sep 14 01:09 S 14 10 Clear CLR 81 69     67%   84 30.21        
Sep 14 00:53 SSE 15 10 Clear CLR 82 69     65%   85 30.21 30.18      
Sep 14 00:38 S 14 10 Clear CLR 83 69     63%   87 30.21        
Sep 14 00:17 ESE 8 10 Thunderstorms SCT075 85 68     57%   88 30.22        
Sep 14 00:02 ESE 5 10 Mostly Clear FEW075 86 68     55%   89 30.21        
Sep 13 23:53 ESE 7 10 Mostly Cloudy SCT070 SCT080 BKN120 BKN250 86 68     55%   89 30.21 30.18      
Sep 13 23:17 SE 5 10 Mostly Cloudy SCT070 SCT080 BKN120 BKN250 85 67     55%   88 30.18        
Sep 13 22:53 SW 5 10 Mostly Cloudy SCT070 SCT080 BKN120 BKN250 83 68     61%   86 30.17 30.14      
Sep 13 21:53 N 11 10 Clear   84 69     61%   88 30.15 30.13      
Sep 13 20:53 NW 5 10 Mostly Cloudy BKN080 BKN250 86 67     53%   89 30.13 30.1      
Sep 13 19:53   10 Mostly Cloudy FEW060 SCT075 BKN085 BKN250 87 65     48%   89 30.11 30.08      
Sep 13 19:35   10 Mostly Cloudy FEW060 SCT075 SCT085 BKN250 91 65     42%   93 30.1        
Sep 13 18:53 SSE 5 10 Partly Cloudy SCT085 SCT250 96 61     31%   97 30.09 30.06      
Sep 13 17:53 6 10 Partly Cloudy SCT085 SCT250 98 63     32%   100 30.09 30.06      
Sep 13 16:53 3 10 Partly Cloudy SCT070 SCT250 100 60     27%   101 30.09 30.06      
Sep 13 15:53 SSW 8 10 Partly Cloudy SCT060 SCT250 99 61     29%   100 30.11 30.08      
Sep 13 14:53 N 5 10 Partly Cloudy SCT060 SCT250 99 61     29%   100 30.13 30.1      
Sep 13 13:53 Calm 10 Partly Cloudy SCT055 SCT250 97 63     33%   99 30.16 30.13      
Sep 13 12:53 SSE 5 10 Partly Cloudy SCT050 SCT250 94 69     45%   99 30.17 30.14      
Sep 13 11:53 6 10 Mostly Clear FEW050 92 70     49%   98 30.19 30.16      
Sep 13 10:53 N 3 10 Mostly Clear FEW050 88 70     55%   93 30.19 30.16      
May 14 14:53 ENE 8 10 Partly Cloudy SCT060 90 61     38%   90 30.02 29.99      
May 13 00:53 S 3 10 Clear CLR 69 59     70%     30.08 30.05      
May 12 22:53 Calm 10 Partly Cloudy FEW200 SCT250 71 60     68%   71 30.11 30.09      
May 12 03:53 Calm 10 Clear CLR 64 61     90%     30.1 30.08      
May 12 01:53 Calm 10 Clear CLR 67 62     84%     30.1 30.07      
May 11 22:53 S 6 10 Partly Cloudy FEW070 SCT250 76 62     62%   76 30.08 30.05      
May 11 20:53 SSW 3 10 Partly Cloudy FEW060 SCT070 SCT250 81 58     45%   81 30.06 30.03      
Jun 09 16:53 WNW 6 10 Partly Cloudy SCT060 SCT070 83 55     38%   82 29.95 29.93      
Jun 07 22:53 N 10 10 Clear CLR 69 54     59%     29.91 29.89